DECAYED

STARLINK-2002, 47597 (Decayed)

Orbit data source: Space-Track

STARLINK-2002, 47597 was a payload satellite owned by SpaceX/Seattle (US) in LEO that was launched on Thu, 04 Feb 2021 UTC via an FALCON 9 launch vehicle from the Air Force Eastern Test Range (AFETR). Payload-class satellites include a variety of spacecraft equipped with specific instruments for various scientific and technological missions. These include communications satellites like Starlink; space stations such as the ISS; scientific satellites like the Hubble; Earth observation satellites from companies like Planet Labs, Umbra, and HawkEye 360; GPS; miniature CubeSats for education and research; and military/defense satellites.

Not visible in the next 10 days
Identifier
47597, 2021-009BB
Orbit
Decayed
Country
Flag of USUS
Related business
Manufacturer
SpaceX/Seattle
Mission
Decayed Commercial Communications
Bus & Motor
STARLINK, Unknown motor
Mass
260 kg wet, ~248 kg dry
Launch date (UTC)
2021-02-04 (5 years ago)
Launch vehicle
FALCON 9
Launch site
Air Force Eastern Test Range (AFETR)
Object type
Payload
Rocket body
Debris
Shape & HBR
Box + 1 Pan, 10.1 m
Radar Cross Section
13.562 m², Large (>1 m²)

Expand to show TLE details & history
Last TLE update: 1 year ago

TLE from 1 year ago
0 STARLINK-2002
1 47597U 21009BB  25088.52138281  .21124012  12513-4  70351-3 0  9995
2 47597  53.0307 102.6232 0003822 291.6522 207.8823 16.44596640229761
Epoch: 2025-03-29T12:30Z
TLE epoch observation values (Epoch: 2025-03-29T12:30:47.474Z)
Latitude
31.35082°
Longitude
-119.36415°
Altitude
157.718 km
Speed
7.815 km/s
True Right ascension
17h 01m 59s
True Declination
31° 11' 03"
Sunlit
Object was in full shadow at epoch
Visualization orbit readout
Latitude
Unknown
Longitude
Unknown
Altitude
Unknown
Speed
Unknown
Apparent Right ascension
Unknown
Apparent Declination
Unknown
Sunlit
N/A
Visualization observer readout
Local Sidereal Time
23:18:22
Azimuth
Unknown
Elevation
Unknown
Doppler factor
Unknown
Orbital elements
Apogee altitude
156.39 km
Perigee altitude
151.397 km
Semi-major axis
6,532.031 km
Eccentricity
0.00038
Inclination
53.0307°
RAAN
102.6232°
Arg. of periapsis
291.6522°
True anomaly
207.86183°
Mean anomaly
207.8823°
Eccentric anomaly
207.87206°
Mean motion
4.11122 °/min
Orbital period
87.57 mins
BSTAR
0.00070351
Loading maneuver chart data...
Computing Atmospheric mass density...

Documentation

Showing up to 5 results
|